Date String (YYYY-MM-DD hh:mm:ss) UTC,Instrument flags,Ambient pressure (hPa),Sample flow (lpm),Bypass flow (lpm),Sample temperature (°C),Ambient temperature (°C),ASC tube jacket temperature (°C),LED temperature (°C),Box temperature (°C),Sample RH (%),Span deviation,Mass concentration (μg/m³),Mass concentration (μg/m³),Mass concentration (μg/m³)
DateTimeUTC,F1_M11,P_M11,Q1_M11,Q2_M11,T1_M11,T2_M11,T3_M11,T4_M11,T5_M11,U1_M11,ZSPAN_M11,X2_M11,X0_M11,X1_M11
2023-05-19 23:00:00,,0838.8,5.00,0.00,28.2,26.6,00.0,36.6,29.8,27.0,0002.9,0097.75,0132.65,0092.27
2023-05-19 23:01:00,,0838.8,4.98,0.00,28.2,26.6,00.0,36.6,29.8,27.0,0003.0,0097.67,0132.23,0092.30
2023-05-19 23:02:00,,0838.8,5.00,0.00,28.2,26.6,00.0,36.6,29.8,26.8,0003.0,0097.54,0131.75,0092.29
2023-05-19 23:03:00,,0838.8,5.00,0.00,28.2,26.6,00.0,36.6,29.8,26.7,0003.0,0097.77,0131.50,0092.45
2023-05-19 23:04:00,,0838.8,5.01,0.00,28.2,26.6,00.0,36.6,29.8,26.9,0003.0,0097.91,0131.64,0092.58
2023-05-19 23:05:00,,0838.8,5.00,0.00,28.2,26.6,00.0,36.6,29.8,27.1,0003.0,0097.96,0131.88,0092.61
2023-05-19 23:06:00,,0838.8,4.99,0.00,28.2,26.6,00.0,36.6,29.8,27.0,0002.9,0097.98,0131.99,0092.63
2023-05-19 23:07:00,,0838.8,5.00,0.00,28.2,26.6,00.0,36.6,29.8,27.0,0002.9,0097.92,0132.10,0092.61
2023-05-19 23:08:00,,0838.8,5.01,0.00,28.2,26.6,00.0,36.6,29.8,27.0,0002.9,0097.92,0132.23,0092.62
2023-05-19 23:09:00,,0838.8,5.00,0.00,28.2,26.6,00.0,36.6,29.8,27.3,0002.8,0097.84,0131.84,0092.58
2023-05-19 23:10:00,,0838.8,4.99,0.00,28.2,26.6,00.0,36.6,29.8,27.2,0002.8,0097.91,0131.21,0092.59
2023-05-19 23:11:00,,0838.7,5.00,0.00,28.2,26.6,00.0,36.6,29.8,27.3,0002.8,0097.81,0131.74,0092.50
2023-05-19 23:12:00,,0838.7,5.02,0.00,28.2,26.6,00.0,36.6,29.8,27.2,0002.8,0097.85,0131.94,0092.50
2023-05-19 23:13:00,,0838.8,5.00,0.00,28.2,26.6,00.0,36.6,29.8,27.1,0002.7,0097.95,0132.86,0092.53
2023-05-19 23:14:00,,0838.8,4.99,0.00,28.2,26.6,00.0,36.6,29.8,27.2,0002.7,0097.81,0132.67,0092.41
2023-05-19 23:15:00,,0838.8,4.99,0.00,28.2,26.6,00.0,36.6,29.8,27.2,0002.6,0097.87,0132.76,0092.40
2023-05-19 23:16:00,,0838.8,4.99,0.00,28.2,26.6,00.0,36.6,29.8,27.2,0002.6,0097.90,0132.72,0092.43
2023-05-19 23:17:00,,0838.8,5.00,0.00,28.2,26.6,00.0,36.6,29.8,27.1,0002.7,0097.91,0132.74,0092.47
2023-05-19 23:18:00,,0838.8,5.01,0.00,28.2,26.6,00.0,36.6,29.8,27.2,0002.7,0098.06,0133.14,0092.44
2023-05-19 23:19:00,,0838.8,5.00,0.00,28.2,26.6,00.0,36.6,29.8,27.3,0002.7,0098.06,0133.71,0092.41
2023-05-19 23:20:00,,0838.8,5.00,0.00,28.2,26.6,00.0,36.6,29.8,27.3,0002.6,0098.14,0133.88,0092.47
2023-05-19 23:21:00,,0838.8,4.99,0.00,28.2,26.6,00.0,36.6,29.8,27.3,0002.6,0098.06,0133.49,0092.45
2023-05-19 23:22:00,,0838.8,5.00,0.00,28.2,26.6,00.0,36.6,29.8,27.5,0002.6,0097.99,0132.56,0092.42
2023-05-19 23:23:00,,0838.8,5.00,0.00,28.2,26.6,00.0,36.6,29.8,27.5,0002.6,0098.02,0132.25,0092.49
2023-05-19 23:24:00,,0838.7,5.00,0.00,28.2,26.6,00.0,36.6,29.8,27.5,0002.6,0097.92,0131.29,0092.43
2023-05-19 23:25:00,,0838.7,5.00,0.00,28.2,26.6,00.0,36.6,29.8,27.7,0002.6,0097.85,0131.64,0092.42
2023-05-19 23:26:00,,0838.8,5.00,0.00,28.2,26.6,00.0,36.6,29.8,27.7,0002.6,0097.76,0131.70,0092.39
2023-05-19 23:27:00,,0838.8,5.00,0.00,28.2,26.6,00.0,36.6,29.8,27.6,0002.7,0097.69,0131.98,0092.38
2023-05-19 23:28:00,,0838.8,5.00,0.00,28.2,26.6,00.0,36.6,29.8,27.6,0002.7,0097.63,0131.72,0092.35
2023-05-19 23:29:00,,0838.8,5.00,0.00,28.2,26.5,00.0,36.6,29.8,27.8,0002.8,0097.42,0131.10,0092.29
2023-05-19 23:30:00,,0838.7,5.00,0.00,28.2,26.6,00.0,36.6,29.8,27.7,0002.7,0097.12,0130.22,0092.09
2023-05-19 23:31:00,,0838.8,4.98,0.00,28.2,26.6,00.0,36.6,29.8,27.9,0002.8,0097.00,0130.27,0092.00
2023-05-19 23:32:00,,0838.8,4.99,0.00,28.2,26.5,00.0,36.6,29.8,27.9,0002.7,0096.86,0130.48,0091.88
2023-05-19 23:33:00,,0838.7,5.00,0.00,28.2,26.5,00.0,36.6,29.8,27.9,0002.7,0096.79,0130.98,0091.79
2023-05-19 23:34:00,,0838.8,5.01,0.00,28.1,26.5,00.0,36.6,29.8,27.9,0002.7,0096.51,0130.58,0091.59
2023-05-19 23:35:00,,0838.8,5.00,0.00,28.2,26.5,00.0,36.6,29.8,28.2,0002.7,0096.37,0130.92,0091.45
2023-05-19 23:36:00,,0838.8,5.00,0.00,28.1,26.5,00.0,36.6,29.8,28.2,0002.7,0096.33,0130.75,0091.34
2023-05-19 23:37:00,,0838.8,4.99,0.00,28.1,26.5,00.0,36.6,29.7,28.1,0002.7,0096.30,0130.41,0091.26
2023-05-19 23:38:00,,0838.8,4.99,0.00,28.1,26.4,00.0,36.6,29.7,28.2,0002.7,0096.20,0129.92,0091.13
2023-05-19 23:39:00,,0838.8,4.99,0.00,28.1,26.4,00.0,36.5,29.7,28.2,0002.6,0096.16,0130.00,0091.01
2023-05-19 23:40:00,,0838.8,5.01,0.00,28.1,26.4,00.0,36.5,29.7,28.3,0002.6,0096.20,0130.25,0090.98
2023-05-19 23:41:00,,0838.8,5.00,0.00,28.1,26.4,00.0,36.5,29.7,28.4,0002.6,0096.34,0130.20,0091.10
2023-05-19 23:42:00,,0838.8,5.01,0.00,28.1,26.4,00.0,36.5,29.7,28.4,0002.5,0096.38,0129.85,0091.17
2023-05-19 23:43:00,,0838.8,5.01,0.00,28.1,26.4,00.0,36.5,29.7,28.2,0002.5,0096.55,0130.01,0091.31
2023-05-19 23:44:00,,0838.8,5.00,0.00,28.1,26.4,00.0,36.5,29.7,28.0,0002.5,0096.69,0130.38,0091.41
2023-05-19 23:45:00,,0838.8,4.99,0.00,28.1,26.4,00.0,36.5,29.7,28.2,0002.5,0096.87,0131.29,0091.49
2023-05-19 23:46:00,,0838.8,5.00,0.00,28.1,26.4,00.0,36.5,29.7,28.3,0002.6,0096.98,0131.16,0091.58
2023-05-19 23:47:00,,0838.8,5.01,0.00,28.1,26.4,00.0,36.5,29.7,28.5,0002.6,0097.10,0130.79,0091.73
2023-05-19 23:48:00,,0838.8,5.00,0.00,28.1,26.4,00.0,36.5,29.7,28.4,0002.5,0097.21,0130.95,0091.88
2023-05-19 23:49:00,,0838.8,5.00,0.00,28.1,26.4,00.0,36.5,29.7,28.4,0002.6,0097.42,0131.25,0091.99
2023-05-19 23:50:00,,0838.8,5.01,0.00,28.1,26.3,00.0,36.5,29.7,28.4,0002.6,0097.61,0131.38,0092.20
2023-05-19 23:51:00,,0838.8,5.00,0.00,28.1,26.3,00.0,36.5,29.7,28.3,0002.6,0097.63,0131.24,0092.33
2023-05-19 23:52:00,,0838.8,4.99,0.00,28.1,26.3,00.0,36.5,29.7,28.3,0002.6,0097.71,0131.68,0092.46
2023-05-19 23:53:00,,0838.8,4.98,0.00,28.1,26.3,00.0,36.5,29.7,28.3,0002.7,0097.83,0132.65,0092.49
2023-05-19 23:54:00,,0838.8,5.01,0.00,28.0,26.3,00.0,36.5,29.7,28.2,0002.7,0097.82,0132.64,0092.51
2023-05-19 23:55:00,,0838.8,5.01,0.00,28.0,26.3,00.0,36.5,29.7,28.1,0002.8,0097.86,0132.33,0092.57
2023-05-19 23:56:00,,0838.9,5.01,0.00,28.0,26.3,00.0,36.5,29.7,28.3,0002.8,0098.12,0131.93,0092.88
2023-05-19 23:57:00,,0838.9,5.00,0.00,28.0,26.3,00.0,36.5,29.7,28.5,0002.7,0098.32,0132.91,0093.07
2023-05-19 23:58:00,,0838.9,4.99,0.00,28.0,26.4,00.0,36.5,29.7,28.7,0002.7,0098.60,0133.68,0093.28
2023-05-19 23:59:00,,0838.8,4.99,0.00,28.0,26.4,00.0,36.5,29.7,28.7,0002.7,0098.76,0133.95,0093.43
